Location: Eschertshofen
(49.3064°N, 11.5756°E)
Time: 23:16:04
(UTC+00:00)

MetOp-B - Pass Details

Date: 18 September 2020
Orbit: 819 x 821 km, 98.7° (Epoch: 31 October)

Event Time Altitude Azimuth Distance (km) Brightness Sun altitude
Exits shadow 19:41:01 53° 117° (ESE) 1,004 4.2 -22.7°
Maximum altitude 19:42:00 63° 70° (ENE) 914 4.1 -22.8°
Drops below altitude 10° 19:47:18 10° 351° (N) 2,428 7.1 -23.5°
Sets 19:49:41 0° 348° (NNW) 3,365 8.0 -23.9°
